Probability
3 2 1 0 1 1 1 2 3 3 4 4 3 2 2 2 1 1 2 3 5 4 3 2 2 2 2 2 2 1 1 0 0 0 0 0 0 1 2 2 2 1 0
3 2 1 0 0 1 2 3 3 3 3 3 2 2 1 1 1 1 1 3 3 3 2 1 1 1 1 1 1 2 2 1 1 1 1 0 0 0 1 1 1 0 0
4 3 1 0 0 1 2 3 3 3 2 1 1 1 1 1 1 0 1 2 2 1 1 0 0 0 0 1 2 3 4 3 2 2 2 1 0 0 0 0 0 0 0
4 4 3 1 1 1 2 2 2 2 1 0 0 1 2 2 1 0 1 1 1 1 2 1 1 0 1 2 3 4 4 4 3 3 3 2 1 0 0 0 0 0 0
6 7 6 5 4 3 4 4 4 3 1 0 1 2 3 2 1 1 0 1 1 2 3 4 3 2 2 2 3 4 4 3 3 3 3 3 2 1 0 0 0 0 0
7 8 8 8 6 5 6 6 5 3 1 1 1 3 3 2 2 2 1 0 1 2 4 6 6 5 4 3 3 3 3 3 3 3 3 3 3 2 1 0 0 0 0
7 8 8 8 8 7 7 7 5 3 1 2 2 2 2 2 2 2 1 1 1 3 5 5 5 6 5 4 4 4 4 4 4 3 3 3 3 3 2 1 0 0 0
7 7 7 7 7 7 7 6 5 3 2 2 2 1 2 2 2 2 2 2 2 5 6 4 4 5 5 5 6 6 6 5 4 3 2 2 3 3 3 2 1 0 0
7 8 8 7 5 5 6 5 3 3 3 3 3 3 2 2 2 2 2 2 3 5 7 5 3 4 4 5 7 7 5 4 2 1 1 1 1 2 2 2 1 0 0
7 8 9 10 8 6 6 6 4 4 6 7 7 5 3 3 2 2 2 1 2 4 6 5 3 4 4 5 6 5 3 2 1 0 0 0 0 1 1 1 1 0 0
9 8 10 14 14 12 11 11 9 8 9 10 10 7 5 4 4 3 2 2 1 2 4 4 3 4 4 5 5 2 1 1 0 0 1 1 0 0 0 0 0 0 0
12 12 13 16 18 17 16 15 14 13 12 12 11 9 7 6 6 5 3 2 1 1 2 2 3 3 3 4 3 1 1 1 0 1 2 2 1 1 1 0 0 0 0
16 17 19 19 20 20 19 18 17 16 15 14 13 11 10 8 8 7 6 4 2 1 1 1 2 2 2 3 3 1 0 0 0 1 2 3 3 2 2 1 0 0 0
21 22 24 25 25 23 22 21 18 18 18 16 14 13 10 8 7 7 8 6 3 3 3 2 1 1 1 2 3 1 1 1 0 0 1 2 3 3 3 1 0 0 0
25 25 26 28 29 26 25 23 20 19 20 18 16 14 10 6 5 5 6 5 4 4 3 1 0 0 1 1 1 1 2 2 1 0 0 1 1 3 3 2 0 0 0
26 26 25 27 29 27 26 23 19 17 18 18 15 12 8 5 3 3 3 4 3 2 2 1 0 0 0 0 1 2 3 3 1 0 0 0 1 3 3 2 0 0 0
25 25 24 25 26 24 22 21 16 13 15 16 13 9 7 5 4 5 6 5 4 4 3 2 1 0 0 0 1 2 3 4 3 1 1 1 2 3 3 2 1 0 0
23 23 24 24 23 20 19 19 16 13 15 15 12 9 7 7 8 10 10 8 8 7 6 4 3 2 1 1 1 2 3 4 4 3 2 1 2 3 3 2 1 0 0
21 21 22 23 20 17 17 19 18 15 15 14 13 12 10 9 10 11 11 11 10 9 8 7 5 5 4 3 3 4 5 6 5 3 2 1 1 1 3 3 1 0 0
19 18 18 19 18 17 16 17 17 17 15 13 13 13 11 8 7 8 9 10 9 8 9 8 7 7 7 7 8 9 10 11 9 5 4 3 2 2 3 3 2 1 0
19 17 16 16 16 14 13 14 15 16 15 15 15 14 11 7 4 4 6 7 7 7 8 8 8 7 8 9 10 11 12 13 11 8 6 5 4 3 4 4 3 2 1
21 18 15 16 15 12 9 8 9 12 14 15 16 16 12 7 5 4 3 2 3 4 6 7 6 5 6 6 6 7 10 11 11 9 7 5 4 4 4 4 3 2 1
23 20 19 19 17 12 6 3 3 7 12 15 17 17 14 11 10 9 5 3 3 3 3 4 4 4 4 5 5 7 9 10 10 8 6 4 3 4 3 2 2 1 1
24 22 22 22 20 14 6 1 2 6 11 15 17 17 16 15 14 13 11 9 7 5 2 2 3 3 3 4 6 7 9 9 8 6 5 4 4 4 3 2 1 0 0
23 22 22 23 24 17 7 1 2 7 12 15 16 16 16 16 14 12 12 12 11 8 4 2 2 2 1 2 3 5 7 8 6 5 5 5 5 5 4 3 1 0 0
23 21 21 24 25 19 9 2 2 8 13 14 16 15 14 14 12 9 11 13 13 11 7 3 2 1 0 0 1 4 6 6 5 4 5 5 5 5 3 2 1 0 0
Wind_Speed
1 1 1 0 1 1 3 3 2 2 3 3 3 4 3 3 2 2 4 7 6 6 5 5 5 5 5 5 5 5 5 5 6 5 5 5 5 4 4 5 6 7 8
1 1 2 1 1 1 1 1 2 3 3 2 3 3 3 3 2 3 2 5 7 6 5 5 5 5 5 4 5 6 6 6 6 6 5 5 4 4 4 4 5 6 7
1 1 0 1 1 2 2 2 2 2 3 3 2 2 2 2 2 2 2 2 5 7 6 6 5 5 5 4 5 5 6 7 7 6 6 5 5 5 4 4 5 5 5
0 1 1 0 1 1 1 2 2 1 1 1 1 1 1 2 3 3 3 3 3 4 7 7 5 5 5 5 4 4 5 6 6 6 6 6 6 5 5 5 4 4 5
1 1 0 1 1 1 1 1 1 0 1 0 1 1 1 1 1 2 2 3 2 2 3 7 7 5 4 4 4 4 4 5 6 6 6 6 5 4 5 5 5 5 5
1 1 1 1 1 1 0 0 1 0 1 1 2 0 1 1 1 1 2 2 3 3 3 3 5 5 5 4 3 3 4 4 4 5 6 6 6 5 5 5 5 6 6
1 1 1 1 1 0 0 1 1 2 1 1 2 1 2 2 1 1 1 1 3 3 3 3 2 1 4 7 5 4 4 4 3 4 5 6 6 5 5 5 5 5 6
1 2 1 1 1 0 0 0 1 1 0 1 2 2 2 3 2 2 2 2 1 2 2 3 2 2 2 2 4 5 5 4 5 4 4 5 6 6 5 5 5 4 4
2 1 1 2 1 2 1 1 1 2 1 1 1 2 2 1 1 2 1 1 1 1 1 2 2 2 3 2 2 5 4 4 5 5 5 5 5 5 6 6 6 5 5
2 2 2 2 2 1 0 2 1 2 2 2 1 1 2 2 2 1 2 2 1 1 1 1 1 2 2 2 1 2 3 4 4 4 4 5 5 5 6 7 7 6 6
3 2 2 2 2 2 1 1 0 3 2 2 1 1 1 2 3 3 2 1 2 2 1 2 2 2 2 2 2 3 4 3 3 4 4 4 5 5 6 7 7 7 6
3 3 2 2 2 2 1 2 2 3 2 2 2 2 2 2 2 2 3 3 2 1 1 1 2 1 2 2 2 4 4 3 3 3 3 4 4 5 5 6 7 7 6
2 3 2 2 2 2 2 2 3 2 2 2 3 3 2 3 3 3 3 3 2 1 1 2 2 1 2 1 2 4 4 4 3 3 3 4 4 4 4 5 6 6 5
2 2 3 3 3 3 3 3 3 3 2 3 3 2 3 3 3 3 3 3 3 2 2 2 1 1 1 1 2 3 3 5 4 4 4 3 3 3 4 4 5 4 4
2 3 3 3 3 3 3 2 1 1 1 2 2 2 3 2 3 3 3 4 4 4 2 2 1 1 1 0 1 2 2 4 5 5 5 4 3 3 3 3 4 4 3
2 3 3 3 3 3 3 2 2 1 1 1 1 2 3 3 2 3 3 3 4 5 4 1 1 1 1 1 2 2 2 4 5 6 6 5 4 4 3 3 3 3 3
3 3 3 3 3 3 3 3 2 2 3 2 2 2 2 3 3 3 3 3 4 4 4 3 1 1 1 3 1 3 3 4 3 7 6 5 5 4 4 3 3 3 3
4 5 4 4 4 3 3 3 3 3 3 3 2 2 2 2 2 3 2 3 3 3 4 3 2 2 3 3 2 4 4 3 3 6 7 6 5 5 5 4 4 3 3
4 4 4 4 4 4 4 4 3 3 3 3 3 3 2 3 3 2 3 3 3 2 3 3 3 2 2 2 3 3 4 3 5 4 8 8 8 6 6 6 5 4 4
5 4 4 4 4 5 4 4 4 4 3 3 3 3 3 3 2 2 2 3 3 3 3 4 3 3 2 2 3 3 3 3 4 3 2 3 6 9 8 8 7 6 5
4 4 4 4 4 5 4 3 4 4 4 4 3 3 3 2 2 3 3 2 2 3 3 3 3 3 2 2 3 3 3 3 3 3 3 3 3 4 6 8 8 7 6
4 4 4 4 5 3 3 3 4 4 4 4 4 3 3 3 3 3 2 3 4 4 4 4 4 3 3 3 3 4 4 4 4 2 4 4 3 3 3 3 5 7 7
4 4 4 4 4 3 4 4 4 5 4 4 3 3 4 2 3 3 4 5 4 4 5 5 4 4 3 3 3 5 4 5 5 3 4 5 3 4 4 2 7 7 7
4 4 4 4 4 4 5 5 5 6 5 5 4 4 4 3 3 3 4 3 4 3 4 5 4 4 3 2 4 5 5 5 6 4 4 5 4 4 3 2 7 8 7
4 4 4 4 4 4 5 6 5 5 4 5 5 5 5 4 1 3 5 4 4 3 3 3 2 3 3 3 4 5 4 5 5 3 3 4 4 4 4 4 5 9 9
4 4 3 3 4 4 4 6 6 5 5 5 4 5 4 3 2 3 5 5 5 4 3 4 4 6 6 6 7 6 6 5 5 4 2 4 4 4 4 3 3 4 6
Wind_Direction
132 131 126 155 203 147 165 171 168 168 196 200 204 192 200 204 218 211 142 157 180 192 198 197 195 200 204 196 194 201 207 206 203 207 208 210 212 211 218 222 216 209 210
107 138 157 174 195 177 138 168 160 173 191 183 194 182 205 196 203 230 185 161 176 184 192 197 194 196 202 213 213 208 208 214 209 205 203 204 211 214 213 209 210 211 211
118 204 193 190 171 158 161 177 165 183 180 176 173 183 200 206 199 217 225 201 173 174 184 190 188 192 198 208 219 217 218 217 214 211 211 208 211 212 212 213 213 214 213
165 235 234 191 167 193 172 157 201 177 123 195 150 225 204 177 196 214 217 207 195 171 168 179 188 194 197 203 218 223 225 220 215 210 209 210 210 208 208 211 214 218 218
188 227 180 64 223 207 202 217 123 145 161 258 210 190 232 222 192 217 217 209 179 172 152 157 173 179 185 189 206 219 223 223 217 209 207 207 208 208 212 216 218 222 225
202 254 185 175 254 205 191 85 104 145 258 244 279 111 218 197 203 184 213 181 161 176 165 153 169 168 176 185 196 217 226 226 225 217 211 208 213 217 220 219 223 226 227
193 246 275 160 270 276 296 227 212 173 206 242 253 220 179 173 151 158 194 176 164 176 169 167 180 181 175 185 198 216 224 228 224 227 222 213 212 218 223 224 228 233 231
229 205 247 246 233 284 216 244 241 275 218 205 267 268 214 161 166 134 156 175 173 178 182 178 181 204 243 198 161 198 215 228 231 225 222 220 214 214 218 223 224 226 235
210 250 242 274 258 246 183 238 230 238 248 215 272 295 293 22 129 151 151 140 166 190 199 180 194 209 236 237 181 163 192 214 221 222 223 220 217 214 217 224 227 227 236
207 206 213 228 254 272 184 239 179 237 246 247 185 255 299 341 290 186 183 158 181 216 223 234 192 188 211 220 178 145 179 206 211 219 220 219 222 224 224 227 229 228 232
199 209 202 205 219 244 256 292 255 256 250 266 269 230 229 221 251 273 264 228 205 200 181 214 219 200 192 205 214 152 163 187 205 224 228 225 228 230 232 229 231 232 232
192 188 195 204 219 237 227 237 237 227 264 289 290 285 268 265 261 262 265 257 253 224 203 224 239 218 207 206 174 129 153 178 196 221 234 235 236 237 240 236 232 234 234
196 182 197 200 214 217 226 232 225 249 239 243 255 267 275 278 284 282 282 277 272 247 211 221 207 213 223 203 153 153 170 186 196 214 232 239 237 233 239 243 233 233 236
228 182 199 203 209 218 226 223 237 229 229 237 249 269 275 272 275 273 275 279 270 253 211 226 198 201 228 226 114 206 184 183 199 211 221 231 232 229 235 231 232 234 234
213 195 203 203 206 210 223 230 241 265 250 249 247 241 266 274 263 273 270 268 275 278 262 186 221 172 200 227 125 241 238 167 194 207 211 212 212 216 223 226 228 231 230
230 211 201 199 200 199 189 202 202 194 222 241 273 308 295 290 290 265 261 262 268 274 285 274 218 227 288 241 179 248 245 162 193 204 203 202 203 208 212 220 227 227 229
216 218 216 212 198 193 191 195 213 207 215 222 241 235 261 296 288 280 268 262 260 261 263 266 225 163 246 280 254 255 241 234 188 181 193 197 198 203 211 213 215 226 232
211 212 213 210 207 201 206 206 218 221 222 226 236 245 255 261 267 281 286 279 275 270 257 258 250 218 221 245 256 263 259 250 251 164 184 195 199 204 212 212 214 225 234
202 207 207 209 210 209 213 216 218 229 228 230 232 239 250 264 270 278 275 277 271 259 251 248 246 249 241 245 250 254 264 276 268 183 188 195 200 206 210 208 209 214 222
201 208 211 210 209 214 216 221 221 225 228 231 237 245 253 262 268 265 252 258 269 273 253 250 246 236 234 233 254 257 253 244 266 268 233 212 194 198 205 206 207 207 209
210 204 206 206 209 213 211 216 227 221 221 230 236 242 246 260 319 302 300 291 272 265 262 257 253 252 247 249 258 271 273 273 256 270 264 248 216 217 202 203 205 204 206
212 212 212 211 215 213 148 189 242 234 226 230 238 244 234 209 199 209 268 303 301 276 277 273 264 265 270 266 274 275 277 276 271 261 282 276 269 261 242 224 168 184 201
205 210 218 220 223 200 168 184 219 243 236 235 237 245 251 210 202 219 209 218 238 255 271 280 280 279 272 275 278 271 278 287 291 297 276 271 262 259 255 200 156 178 197
208 213 217 222 226 204 175 190 210 228 240 239 237 236 243 246 236 250 248 236 237 230 242 252 275 282 283 278 263 268 273 265 262 256 257 265 261 259 261 233 171 183 196
208 217 217 222 224 209 179 191 213 228 229 238 240 237 240 234 213 250 247 245 245 235 212 221 268 281 297 276 272 264 258 260 265 255 238 267 274 265 255 241 192 188 196
211 217 208 217 226 227 186 191 212 235 232 234 229 228 214 234 205 228 244 249 250 254 257 227 222 225 229 222 229 252 261 262 269 266 222 256 268 268 261 244 232 206 204